QPF
0.00 0.00 0.00 0.00 0.00 0.00 0.00 0.00 0.01 0.01 0.00 0.00 0.00 0.00 0.00 0.01 0.03 0.06 0.07 0.07 0.07 0.07 0.06 0.05 0.04 0.04 0.04 0.03 0.03 0.03 0.06 0.11 0.13 0.15 0.16 0.14 0.11 0.09 0.07 0.06 0.07 0.05 0.04
0.00 0.00 0.01 0.01 0.00 0.00 0.00 0.00 0.01 0.00 0.00 0.00 0.00 0.00 0.00 0.00 0.01 0.03 0.04 0.04 0.04 0.05 0.06 0.05 0.04 0.04 0.03 0.03 0.03 0.03 0.04 0.06 0.09 0.12 0.15 0.12 0.10 0.07 0.07 0.08 0.07 0.05 0.05
0.01 0.01 0.01 0.01 0.01 0.01 0.00 0.00 0.00 0.00 0.00 0.00 0.01 0.01 0.01 0.00 0.00 0.00 0.01 0.01 0.03 0.03 0.03 0.03 0.06 0.09 0.08 0.07 0.07 0.05 0.04 0.05 0.05 0.07 0.08 0.07 0.06 0.05 0.04 0.06 0.07 0.06 0.06
0.02 0.03 0.02 0.02 0.01 0.01 0.01 0.01 0.01 0.01 0.01 0.01 0.01 0.01 0.01 0.01 0.01 0.01 0.01 0.01 0.02 0.01 0.02 0.02 0.04 0.12 0.12 0.09 0.07 0.06 0.04 0.04 0.03 0.03 0.05 0.04 0.04 0.04 0.03 0.05 0.05 0.08 0.10
0.05 0.04 0.02 0.03 0.02 0.02 0.02 0.02 0.03 0.02 0.03 0.02 0.01 0.00 0.01 0.01 0.01 0.02 0.02 0.03 0.02 0.01 0.01 0.01 0.03 0.06 0.07 0.06 0.05 0.04 0.03 0.03 0.07 0.07 0.06 0.04 0.03 0.03 0.04 0.04 0.04 0.08 0.15
0.04 0.03 0.02 0.03 0.03 0.02 0.02 0.02 0.02 0.02 0.04 0.04 0.02 0.01 0.01 0.02 0.02 0.02 0.03 0.03 0.03 0.02 0.02 0.02 0.03 0.03 0.04 0.03 0.04 0.03 0.03 0.02 0.05 0.07 0.11 0.09 0.04 0.03 0.05 0.04 0.03 0.05 0.09
0.03 0.03 0.02 0.02 0.02 0.02 0.02 0.01 0.01 0.02 0.02 0.04 0.04 0.04 0.04 0.04 0.04 0.03 0.04 0.04 0.04 0.04 0.04 0.04 0.03 0.02 0.03 0.03 0.03 0.03 0.03 0.02 0.02 0.02 0.04 0.09 0.08 0.07 0.08 0.06 0.05 0.04 0.06
0.04 0.03 0.03 0.03 0.03 0.03 0.02 0.02 0.02 0.02 0.02 0.04 0.06 0.07 0.08 0.10 0.11 0.08 0.06 0.05 0.05 0.05 0.05 0.04 0.03 0.03 0.03 0.03 0.03 0.03 0.03 0.02 0.02 0.03 0.03 0.05 0.08 0.09 0.12 0.12 0.09 0.07 0.06
0.04 0.04 0.04 0.04 0.05 0.05 0.04 0.03 0.04 0.03 0.04 0.07 0.08 0.09 0.09 0.10 0.11 0.11 0.10 0.08 0.07 0.06 0.06 0.05 0.03 0.02 0.02 0.02 0.03 0.03 0.04 0.04 0.03 0.03 0.03 0.04 0.06 0.08 0.10 0.12 0.11 0.11 0.08
0.03 0.03 0.04 0.05 0.05 0.04 0.04 0.04 0.04 0.04 0.04 0.07 0.07 0.09 0.11 0.11 0.08 0.09 0.09 0.08 0.07 0.07 0.07 0.07 0.05 0.03 0.03 0.03 0.04 0.04 0.05 0.06 0.04 0.03 0.03 0.04 0.05 0.07 0.09 0.09 0.08 0.08 0.08
0.04 0.04 0.05 0.06 0.05 0.05 0.04 0.04 0.04 0.03 0.03 0.03 0.03 0.04 0.05 0.05 0.06 0.07 0.07 0.06 0.06 0.06 0.06 0.07 0.07 0.05 0.05 0.04 0.06 0.05 0.05 0.05 0.04 0.03 0.04 0.04 0.05 0.07 0.07 0.07 0.06 0.06 0.07
0.04 0.05 0.07 0.06 0.05 0.05 0.05 0.05 0.04 0.03 0.03 0.03 0.03 0.02 0.03 0.04 0.05 0.05 0.06 0.06 0.06 0.06 0.05 0.04 0.05 0.04 0.04 0.04 0.05 0.04 0.04 0.05 0.07 0.08 0.06 0.05 0.06 0.06 0.05 0.06 0.06 0.06 0.07
0.02 0.03 0.08 0.08 0.06 0.05 0.04 0.04 0.04 0.03 0.03 0.02 0.02 0.02 0.02 0.03 0.03 0.04 0.04 0.04 0.05 0.05 0.04 0.02 0.03 0.04 0.05 0.04 0.04 0.04 0.04 0.05 0.09 0.12 0.10 0.07 0.07 0.06 0.05 0.06 0.06 0.06 0.06
0.03 0.02 0.03 0.05 0.06 0.05 0.04 0.05 0.03 0.03 0.03 0.02 0.02 0.01 0.02 0.02 0.03 0.03 0.03 0.04 0.04 0.04 0.04 0.03 0.03 0.03 0.04 0.04 0.04 0.03 0.02 0.02 0.03 0.06 0.10 0.12 0.12 0.11 0.10 0.09 0.08 0.06 0.05
0.03 0.03 0.02 0.02 0.03 0.03 0.04 0.03 0.03 0.03 0.03 0.02 0.01 0.01 0.01 0.01 0.02 0.02 0.03 0.05 0.05 0.04 0.04 0.05 0.05 0.04 0.03 0.03 0.05 0.04 0.03 0.02 0.02 0.02 0.04 0.09 0.11 0.11 0.11 0.10 0.09 0.07 0.05
0.04 0.03 0.02 0.02 0.03 0.03 0.02 0.02 0.02 0.02 0.03 0.02 0.01 0.01 0.01 0.01 0.01 0.01 0.02 0.04 0.06 0.05 0.04 0.06 0.07 0.06 0.04 0.04 0.05 0.04 0.03 0.03 0.02 0.02 0.02 0.03 0.05 0.05 0.06 0.06 0.06 0.06 0.04
0.03 0.03 0.02 0.02 0.02 0.02 0.02 0.01 0.01 0.02 0.02 0.03 0.02 0.02 0.01 0.02 0.01 0.01 0.01 0.03 0.04 0.04 0.04 0.05 0.07 0.07 0.06 0.05 0.05 0.05 0.03 0.03 0.03 0.02 0.01 0.01 0.01 0.02 0.02 0.02 0.03 0.03 0.02
0.04 0.03 0.02 0.02 0.01 0.01 0.01 0.01 0.01 0.01 0.02 0.03 0.04 0.03 0.02 0.02 0.02 0.01 0.01 0.02 0.02 0.03 0.03 0.03 0.04 0.06 0.07 0.06 0.04 0.04 0.04 0.05 0.04 0.03 0.02 0.02 0.01 0.01 0.01 0.01 0.02 0.01 0.01
0.06 0.05 0.03 0.02 0.01 0.01 0.01 0.01 0.01 0.01 0.01 0.03 0.04 0.04 0.03 0.03 0.02 0.02 0.02 0.02 0.01 0.02 0.04 0.05 0.04 0.04 0.05 0.05 0.04 0.04 0.04 0.05 0.05 0.04 0.02 0.02 0.01 0.01 0.01 0.01 0.01 0.01 0.01
0.07 0.06 0.05 0.03 0.02 0.02 0.02 0.02 0.02 0.02 0.01 0.02 0.03 0.03 0.04 0.04 0.03 0.03 0.02 0.02 0.02 0.03 0.04 0.05 0.05 0.04 0.04 0.04 0.04 0.04 0.04 0.05 0.04 0.03 0.02 0.01 0.01 0.01 0.01 0.01 0.01 0.01 0.01
0.06 0.06 0.06 0.05 0.03 0.03 0.03 0.02 0.02 0.02 0.03 0.02 0.02 0.02 0.03 0.05 0.05 0.05 0.05 0.04 0.04 0.04 0.05 0.05 0.04 0.04 0.04 0.04 0.04 0.04 0.05 0.05 0.05 0.03 0.02 0.01 0.01 0.00 0.00 0.01 0.01 0.01 0.00
0.04 0.05 0.06 0.07 0.05 0.03 0.04 0.04 0.04 0.03 0.03 0.03 0.03 0.03 0.04 0.05 0.07 0.08 0.08 0.07 0.06 0.04 0.04 0.05 0.06 0.04 0.03 0.03 0.03 0.03 0.04 0.04 0.04 0.03 0.03 0.02 0.01 0.00 0.00 0.00 0.01 0.01 0.01
0.05 0.05 0.06 0.07 0.05 0.04 0.05 0.05 0.05 0.04 0.04 0.04 0.03 0.03 0.03 0.05 0.07 0.06 0.07 0.07 0.05 0.04 0.04 0.04 0.05 0.05 0.03 0.02 0.03 0.02 0.02 0.02 0.02 0.02 0.02 0.02 0.02 0.02 0.01 0.01 0.01 0.01 0.01
0.05 0.05 0.05 0.06 0.06 0.06 0.05 0.03 0.03 0.03 0.04 0.04 0.04 0.05 0.04 0.03 0.04 0.04 0.05 0.05 0.04 0.04 0.03 0.03 0.04 0.06 0.04 0.02 0.02 0.01 0.02 0.02 0.02 0.01 0.02 0.02 0.01 0.02 0.02 0.01 0.01 0.01 0.01
0.04 0.03 0.04 0.04 0.05 0.06 0.05 0.03 0.02 0.01 0.02 0.02 0.02 0.03 0.04 0.03 0.05 0.05 0.05 0.04 0.04 0.04 0.02 0.02 0.04 0.05 0.06 0.05 0.03 0.03 0.02 0.01 0.01 0.01 0.01 0.02 0.02 0.01 0.01 0.01 0.01 0.01 0.01
0.05 0.05 0.04 0.04 0.05 0.05 0.06 0.05 0.03 0.01 0.01 0.02 0.02 0.03 0.04 0.03 0.03 0.04 0.04 0.03 0.04 0.04 0.03 0.02 0.03 0.06 0.06 0.06 0.06 0.04 0.03 0.02 0.01 0.01 0.01 0.02 0.02 0.02 0.02 0.01 0.01 0.01 0.01
MSLP
1017.19 1017.07 1016.87 1016.62 1016.36 1016.15 1015.99 1015.91 1015.88 1015.87 1015.84 1015.76 1015.62 1015.43 1015.20 1014.97 1014.76 1014.61 1014.53 1014.49 1014.47 1014.46 1014.41 1014.33 1014.19 1014.04 1013.88 1013.75 1013.67 1013.65 1013.68 1013.75 1013.83 1013.91 1013.96 1013.97 1013.94 1013.88 1013.81 1013.73 1013.66 1013.60 1013.56
1017.41 1017.26 1017.03 1016.75 1016.48 1016.24 1016.07 1015.97 1015.92 1015.89 1015.85 1015.77 1015.64 1015.45 1015.24 1015.02 1014.84 1014.71 1014.63 1014.61 1014.61 1014.62 1014.61 1014.56 1014.48 1014.37 1014.26 1014.16 1014.10 1014.08 1014.09 1014.14 1014.18 1014.22 1014.23 1014.21 1014.16 1014.09 1014.01 1013.95 1013.89 1013.86 1013.85
1017.79 1017.59 1017.31 1017.00 1016.70 1016.44 1016.25 1016.12 1016.04 1015.98 1015.91 1015.81 1015.67 1015.48 1015.27 1015.07 1014.89 1014.76 1014.69 1014.66 1014.67 1014.69 1014.70 1014.69 1014.65 1014.59 1014.53 1014.47 1014.42 1014.41 1014.41 1014.41 1014.42 1014.41 1014.38 1014.32 1014.25 1014.18 1014.12 1014.08 1014.07 1014.09 1014.12
1018.34 1018.06 1017.73 1017.39 1017.05 1016.77 1016.54 1016.37 1016.25 1016.14 1016.03 1015.90 1015.73 1015.52 1015.30 1015.09 1014.90 1014.75 1014.66 1014.62 1014.62 1014.63 1014.65 1014.67 1014.67 1014.66 1014.64 1014.63 1014.61 1014.60 1014.59 1014.57 1014.53 1014.47 1014.40 1014.31 1014.23 1014.16 1014.12 1014.12 1014.16 1014.24 1014.34
1019.00 1018.65 1018.27 1017.89 1017.54 1017.22 1016.96 1016.75 1016.56 1016.40 1016.22 1016.03 1015.81 1015.57 1015.32 1015.08 1014.87 1014.70 1014.57 1014.50 1014.46 1014.46 1014.48 1014.50 1014.54 1014.57 1014.61 1014.64 1014.65 1014.66 1014.65 1014.60 1014.53 1014.43 1014.31 1014.19 1014.09 1014.02 1014.01 1014.05 1014.15 1014.30 1014.48
1019.70 1019.30 1018.89 1018.49 1018.11 1017.78 1017.48 1017.22 1016.97 1016.73 1016.48 1016.21 1015.93 1015.64 1015.35 1015.07 1014.82 1014.61 1014.44 1014.32 1014.24 1014.20 1014.19 1014.22 1014.27 1014.34 1014.42 1014.50 1014.56 1014.60 1014.59 1014.54 1014.45 1014.31 1014.16 1014.01 1013.89 1013.82 1013.82 1013.90 1014.05 1014.26 1014.51
1020.39 1019.95 1019.52 1019.11 1018.74 1018.40 1018.07 1017.76 1017.44 1017.12 1016.79 1016.45 1016.10 1015.76 1015.42 1015.10 1014.81 1014.55 1014.32 1014.13 1013.99 1013.90 1013.85 1013.85 1013.91 1014.00 1014.12 1014.24 1014.35 1014.42 1014.45 1014.41 1014.30 1014.16 1013.98 1013.80 1013.66 1013.59 1013.59 1013.69 1013.87 1014.13 1014.45
1021.00 1020.54 1020.12 1019.73 1019.38 1019.03 1018.69 1018.33 1017.96 1017.56 1017.16 1016.74 1016.34 1015.94 1015.57 1015.21 1014.87 1014.56 1014.27 1014.02 1013.79 1013.62 1013.51 1013.47 1013.50 1013.59 1013.73 1013.89 1014.05 1014.17 1014.23 1014.21 1014.13 1013.98 1013.80 1013.61 1013.45 1013.36 1013.35 1013.45 1013.66 1013.95 1014.31
1021.51 1021.07 1020.67 1020.32 1019.99 1019.66 1019.31 1018.92 1018.50 1018.05 1017.58 1017.11 1016.66 1016.23 1015.82 1015.44 1015.07 1014.71 1014.35 1014.01 1013.70 1013.44 1013.24 1013.12 1013.10 1013.17 1013.30 1013.48 1013.67 1013.83 1013.94 1013.97 1013.92 1013.80 1013.63 1013.44 1013.28 1013.17 1013.15 1013.24 1013.44 1013.75 1014.13
1021.94 1021.53 1021.18 1020.87 1020.57 1020.26 1019.91 1019.51 1019.05 1018.56 1018.05 1017.56 1017.08 1016.63 1016.21 1015.81 1015.42 1015.01 1014.59 1014.17 1013.76 1013.38 1013.08 1012.86 1012.76 1012.77 1012.87 1013.05 1013.25 1013.45 1013.60 1013.68 1013.68 1013.60 1013.46 1013.29 1013.14 1013.03 1013.00 1013.08 1013.27 1013.57 1013.96
1022.34 1021.97 1021.66 1021.40 1021.13 1020.84 1020.50 1020.09 1019.62 1019.11 1018.59 1018.08 1017.60 1017.15 1016.74 1016.33 1015.91 1015.47 1014.98 1014.48 1013.97 1013.48 1013.05 1012.73 1012.52 1012.45 1012.49 1012.63 1012.82 1013.03 1013.22 1013.35 1013.40 1013.37 1013.28 1013.16 1013.03 1012.94 1012.91 1012.98 1013.15 1013.44 1013.82
1022.75 1022.42 1022.16 1021.93 1021.69 1021.42 1021.08 1020.67 1020.20 1019.69 1019.17 1018.67 1018.20 1017.77 1017.37 1016.96 1016.53 1016.05 1015.52 1014.93 1014.32 1013.72 1013.18 1012.73 1012.41 1012.24 1012.20 1012.27 1012.43 1012.62 1012.81 1012.97 1013.07 1013.10 1013.08 1013.01 1012.93 1012.88 1012.87 1012.94 1013.11 1013.38 1013.75
1023.22 1022.93 1022.69 1022.49 1022.27 1022.00 1021.67 1021.26 1020.80 1020.29 1019.79 1019.31 1018.87 1018.46 1018.07 1017.67 1017.23 1016.72 1016.14 1015.49 1014.80 1014.11 1013.47 1012.91 1012.48 1012.19 1012.05 1012.04 1012.12 1012.27 1012.44 1012.60 1012.73 1012.81 1012.84 1012.85 1012.84 1012.84 1012.87 1012.96 1013.13 1013.39 1013.74
1023.77 1023.50 1023.28 1023.09 1022.88 1022.61 1022.28 1021.88 1021.42 1020.93 1020.45 1020.00 1019.57 1019.19 1018.81 1018.41 1017.96 1017.43 1016.81 1016.12 1015.38 1014.62 1013.90 1013.26 1012.73 1012.34 1012.09 1011.97 1011.96 1012.03 1012.14 1012.27 1012.40 1012.51 1012.59 1012.66 1012.73 1012.79 1012.88 1013.02 1013.20 1013.46 1013.80
1024.36 1024.11 1023.91 1023.72 1023.51 1023.24 1022.91 1022.51 1022.07 1021.60 1021.14 1020.71 1020.30 1019.92 1019.55 1019.14 1018.68 1018.14 1017.51 1016.79 1016.03 1015.24 1014.48 1013.78 1013.18 1012.71 1012.36 1012.13 1012.00 1011.96 1011.98 1012.04 1012.13 1012.24 1012.35 1012.48 1012.60 1012.74 1012.90 1013.08 1013.30 1013.57 1013.89
1024.98 1024.75 1024.55 1024.37 1024.15 1023.88 1023.56 1023.17 1022.74 1022.29 1021.85 1021.43 1021.04 1020.66 1020.27 1019.86 1019.38 1018.83 1018.19 1017.48 1016.72 1015.94 1015.18 1014.47 1013.84 1013.30 1012.86 1012.52 1012.27 1012.10 1012.00 1011.96 1011.98 1012.04 1012.15 1012.30 1012.47 1012.67 1012.89 1013.12 1013.37 1013.65 1013.97
1025.57 1025.36 1025.18 1025.00 1024.79 1024.53 1024.21 1023.84 1023.43 1023.00 1022.58 1022.16 1021.77 1021.38 1020.98 1020.54 1020.06 1019.50 1018.87 1018.18 1017.45 1016.71 1015.98 1015.29 1014.66 1014.09 1013.59 1013.15 1012.78 1012.47 1012.23 1012.06 1011.96 1011.95 1012.01 1012.14 1012.33 1012.57 1012.82 1013.10 1013.38 1013.68 1013.99
1026.11 1025.93 1025.78 1025.61 1025.42 1025.17 1024.87 1024.52 1024.13 1023.72 1023.31 1022.90 1022.50 1022.09 1021.67 1021.21 1020.70 1020.14 1019.52 1018.87 1018.19 1017.51 1016.84 1016.20 1015.59 1015.02 1014.47 1013.96 1013.47 1013.03 1012.64 1012.32 1012.09 1011.97 1011.95 1012.03 1012.19 1012.42 1012.69 1012.99 1013.28 1013.58 1013.89
1026.60 1026.46 1026.34 1026.20 1026.03 1025.81 1025.53 1025.20 1024.84 1024.45 1024.05 1023.64 1023.23 1022.80 1022.35 1021.87 1021.34 1020.77 1020.17 1019.54 1018.92 1018.30 1017.70 1017.12 1016.56 1016.00 1015.43 1014.86 1014.29 1013.72 1013.19 1012.72 1012.35 1012.09 1011.96 1011.96 1012.06 1012.25 1012.49 1012.77 1013.06 1013.35 1013.64
1027.04 1026.96 1026.88 1026.78 1026.63 1026.44 1026.18 1025.88 1025.53 1025.16 1024.77 1024.37 1023.94 1023.50 1023.02 1022.51 1021.97 1021.39 1020.79 1020.20 1019.62 1019.06 1018.53 1018.01 1017.50 1016.96 1016.40 1015.79 1015.15 1014.49 1013.84 1013.24 1012.73 1012.33 1012.07 1011.94 1011.94 1012.05 1012.23 1012.45 1012.70 1012.96 1013.22
1027.49 1027.46 1027.42 1027.35 1027.24 1027.06 1026.82 1026.54 1026.21 1025.85 1025.47 1025.06 1024.64 1024.18 1023.68 1023.15 1022.58 1022.00 1021.41 1020.83 1020.28 1019.77 1019.29 1018.82 1018.35 1017.85 1017.29 1016.68 1016.00 1015.27 1014.53 1013.83 1013.19 1012.66 1012.26 1012.00 1011.88 1011.86 1011.94 1012.07 1012.24 1012.44 1012.66
1027.96 1027.98 1027.98 1027.94 1027.84 1027.68 1027.45 1027.17 1026.85 1026.49 1026.12 1025.72 1025.29 1024.82 1024.32 1023.77 1023.20 1022.60 1022.01 1021.44 1020.91 1020.42 1019.97 1019.54 1019.10 1018.63 1018.10 1017.49 1016.80 1016.04 1015.25 1014.47 1013.74 1013.10 1012.57 1012.17 1011.90 1011.75 1011.68 1011.69 1011.75 1011.85 1012.00
1028.48 1028.54 1028.57 1028.54 1028.45 1028.28 1028.04 1027.76 1027.43 1027.08 1026.70 1026.31 1025.89 1025.43 1024.93 1024.38 1023.81 1023.21 1022.62 1022.05 1021.52 1021.04 1020.60 1020.18 1019.77 1019.32 1018.81 1018.22 1017.55 1016.80 1015.99 1015.17 1014.38 1013.65 1013.01 1012.48 1012.06 1011.75 1011.53 1011.38 1011.30 1011.29 1011.33
1029.01 1029.11 1029.15 1029.12 1029.02 1028.83 1028.58 1028.28 1027.95 1027.59 1027.22 1026.83 1026.42 1025.98 1025.50 1024.97 1024.41 1023.83 1023.24 1022.67 1022.13 1021.65 1021.21 1020.80 1020.39 1019.97 1019.48 1018.92 1018.28 1017.55 1016.77 1015.94 1015.12 1014.33 1013.60 1012.95 1012.40 1011.93 1011.54 1011.23 1010.99 1010.83 1010.76
1029.53 1029.64 1029.69 1029.65 1029.53 1029.32 1029.05 1028.73 1028.38 1028.02 1027.66 1027.29 1026.91 1026.50 1026.05 1025.56 1025.03 1024.47 1023.89 1023.33 1022.80 1022.31 1021.86 1021.44 1021.04 1020.62 1020.16 1019.63 1019.02 1018.34 1017.58 1016.78 1015.95 1015.13 1014.34 1013.60 1012.92 1012.31 1011.77 1011.30 1010.90 1010.59 1010.37
1029.97 1030.08 1030.13 1030.08 1029.94 1029.71 1029.42 1029.09 1028.74 1028.38 1028.04 1027.69 1027.35 1026.99 1026.59 1026.15 1025.67 1025.14 1024.60 1024.06 1023.53 1023.03 1022.57 1022.14 1021.73 1021.32 1020.87 1020.37 1019.80 1019.16 1018.45 1017.68 1016.86 1016.03 1015.20 1014.40 1013.63 1012.90 1012.22 1011.60 1011.06 1010.60 1010.23
Thickness
5733 5732 5732 5732 5732 5731 5731 5730 5729 5729 5728 5727 5726 5726 5725 5725 5725 5725 5725 5725 5725 5725 5724 5724 5724 5724 5723 5723 5723 5722 5721 5721 5721 5721 5720 5719 5719 5719 5718 5718 5718 5718 5717
5730 5729 5728 5727 5727 5727 5727 5726 5725 5724 5723 5723 5722 5721 5721 5720 5720 5720 5720 5720 5720 5720 5719 5719 5719 5719 5718 5718 5717 5717 5716 5716 5716 5716 5715 5715 5715 5714 5714 5713 5713 5713 5713
5726 5725 5724 5723 5723 5723 5723 5722 5721 5720 5719 5718 5717 5717 5716 5716 5715 5715 5715 5715 5715 5715 5714 5714 5714 5714 5713 5713 5712 5711 5711 5711 5711 5710 5710 5710 5711 5710 5710 5709 5708 5708 5708
5723 5721 5720 5719 5720 5719 5719 5718 5717 5715 5713 5712 5712 5712 5712 5712 5711 5711 5710 5710 5709 5709 5709 5709 5709 5708 5708 5707 5707 5706 5706 5705 5705 5705 5705 5706 5706 5706 5705 5704 5703 5703 5703
5719 5718 5716 5716 5716 5715 5714 5714 5712 5711 5708 5707 5707 5707 5707 5707 5707 5707 5706 5705 5704 5704 5704 5703 5703 5702 5703 5702 5702 5701 5701 5701 5701 5701 5701 5701 5701 5701 5700 5699 5699 5698 5698
5715 5714 5712 5711 5711 5710 5709 5709 5707 5707 5705 5704 5704 5702 5702 5702 5702 5702 5701 5700 5700 5699 5699 5698 5698 5697 5697 5697 5697 5697 5696 5696 5696 5696 5696 5695 5695 5695 5695 5694 5694 5694 5693
5710 5709 5707 5707 5706 5705 5704 5703 5702 5701 5700 5700 5697 5694 5695 5696 5696 5696 5696 5695 5695 5695 5694 5694 5693 5693 5692 5691 5691 5691 5691 5691 5691 5691 5691 5690 5690 5690 5690 5690 5689 5689 5689
5705 5704 5703 5702 5701 5700 5699 5698 5697 5695 5694 5694 5691 5687 5683 5684 5688 5691 5690 5690 5690 5690 5690 5689 5689 5688 5687 5687 5686 5686 5686 5686 5686 5686 5685 5685 5685 5685 5685 5684 5684 5684 5683
5701 5700 5699 5698 5697 5696 5694 5693 5693 5691 5689 5689 5689 5685 5678 5675 5677 5681 5684 5684 5684 5684 5685 5685 5685 5684 5683 5683 5682 5682 5682 5682 5682 5681 5680 5680 5680 5680 5679 5679 5678 5678 5678
5697 5696 5695 5694 5693 5692 5690 5690 5689 5688 5687 5684 5684 5683 5681 5679 5674 5672 5675 5678 5679 5679 5680 5680 5680 5680 5679 5679 5678 5678 5677 5677 5677 5676 5676 5675 5675 5674 5674 5673 5673 5673 5672
5692 5692 5691 5690 5689 5687 5686 5686 5684 5684 5683 5681 5679 5678 5676 5675 5673 5669 5666 5668 5671 5673 5674 5675 5675 5675 5674 5674 5673 5673 5672 5672 5672 5672 5671 5670 5669 5669 5668 5668 5667 5667 5667
5686 5686 5686 5685 5684 5683 5682 5681 5680 5679 5678 5677 5676 5675 5673 5670 5668 5666 5662 5662 5662 5666 5669 5670 5670 5669 5669 5669 5669 5668 5668 5667 5667 5666 5665 5664 5663 5663 5663 5662 5662 5662 5662
5679 5679 5680 5680 5679 5678 5677 5676 5675 5674 5673 5673 5671 5670 5669 5668 5667 5664 5661 5658 5657 5659 5662 5663 5665 5665 5664 5664 5664 5663 5662 5662 5661 5660 5659 5658 5657 5656 5656 5656 5656 5656 5655
5674 5674 5674 5674 5673 5673 5672 5671 5670 5669 5668 5667 5667 5665 5664 5664 5663 5662 5659 5655 5652 5652 5654 5656 5658 5659 5659 5659 5658 5657 5656 5656 5655 5654 5653 5652 5651 5650 5650 5650 5650 5649 5649
5669 5669 5668 5667 5667 5667 5666 5666 5664 5662 5662 5661 5661 5660 5659 5659 5659 5658 5656 5654 5650 5645 5646 5649 5650 5653 5653 5653 5652 5651 5650 5650 5649 5648 5647 5647 5646 5645 5644 5644 5643 5643 5642
5663 5662 5661 5661 5661 5660 5660 5659 5658 5657 5656 5655 5655 5654 5653 5653 5652 5651 5650 5649 5648 5644 5641 5643 5644 5646 5646 5646 5645 5645 5644 5643 5643 5642 5642 5641 5640 5639 5639 5638 5637 5636 5636
5655 5655 5655 5654 5654 5653 5653 5652 5651 5651 5649 5649 5648 5648 5647 5646 5645 5644 5643 5642 5641 5639 5636 5637 5638 5639 5639 5639 5638 5638 5638 5637 5636 5635 5635 5634 5634 5633 5632 5631 5631 5630 5629
5648 5648 5647 5646 5646 5646 5646 5645 5644 5644 5642 5641 5641 5641 5640 5640 5638 5637 5636 5635 5634 5633 5631 5629 5630 5630 5631 5631 5631 5630 5630 5630 5629 5628 5627 5627 5626 5626 5625 5624 5624 5623 5622
5639 5639 5639 5638 5637 5637 5638 5637 5637 5636 5635 5635 5634 5634 5633 5632 5631 5630 5629 5628 5627 5627 5625 5623 5622 5622 5623 5623 5623 5623 5623 5622 5622 5621 5620 5619 5618 5618 5618 5617 5617 5616 5615
5630 5629 5629 5629 5628 5628 5629 5629 5629 5628 5628 5628 5628 5627 5627 5626 5625 5624 5623 5622 5620 5618 5617 5616 5615 5614 5614 5615 5614 5613 5613 5612 5612 5613 5611 5611 5610 5610 5610 5610 5610 5609 5608
5620 5620 5619 5618 5618 5618 5619 5620 5620 5620 5620 5619 5620 5620 5621 5621 5621 5619 5618 5616 5613 5611 5609 5608 5607 5606 5606 5605 5605 5605 5603 5602 5602 5603 5602 5602 5602 5603 5602 5602 5602 5601 5601
5610 5609 5609 5608 5608 5609 5609 5611 5611 5612 5611 5611 5611 5612 5613 5613 5614 5613 5612 5611 5609 5606 5603 5601 5600 5599 5600 5599 5598 5597 5594 5592 5592 5594 5593 5593 5594 5594 5594 5594 5594 5594 5593
5598 5598 5598 5598 5598 5599 5600 5601 5603 5602 5602 5602 5602 5603 5604 5605 5604 5604 5604 5603 5602 5602 5601 5598 5596 5595 5594 5594 5592 5589 5587 5586 5585 5586 5584 5584 5584 5584 5586 5586 5586 5586 5585
5587 5588 5587 5587 5588 5589 5590 5591 5593 5593 5593 5593 5593 5593 5594 5594 5595 5595 5594 5593 5592 5592 5593 5593 5592 5591 5591 5590 5588 5586 5583 5580 5578 5578 5577 5574 5575 5576 5578 5578 5579 5578 5578
5577 5577 5577 5577 5577 5579 5580 5581 5582 5582 5582 5582 5583 5584 5585 5585 5587 5586 5585 5583 5583 5583 5585 5585 5585 5585 5584 5583 5581 5577 5574 5571 5569 5570 5569 5567 5567 5568 5569 5571 5571 5570 5570
5567 5567 5566 5566 5567 5568 5570 5571 5572 5571 5571 5571 5573 5574 5575 5576 5577 5577 5575 5574 5573 5574 5575 5576 5575 5576 5575 5574 5573 5571 5569 5565 5562 5561 5562 5560 5560 5559 5560 5562 5563 5562 5562